User: anonymous   Login
Location: Doverdale
(52.2833°N, 2.2000°W)
Time: 21:08:40
(UTC+00:00)
Language:

YAOGAN 1 - Orbit

View from above orbital plane
View from above orbital plane
View from above satellite
View from above satellite

Ground track
Ground track

The orbit data is extracted from the following two-line orbital elements,

1 29092U 06015A   21016.58271826  .00000071  00000-0  15181-4 0  9991
2 29092  97.9235  45.3671 0001372  92.3444 267.7927 14.83121757796320
Epoch (UTC): 16 January 2021 13:59:06
Eccentricity: 0.0001372
inclination: 97.9235°
perigee height: 618 km
apogee height: 620 km
right ascension of ascending node: 45.3671°
argument of perigee: 92.3444°
revolutions per day: 14.83121757
mean anomaly at epoch: 267.7927°
orbit number at epoch: 79632

The dashed part of the orbit path shows where the satellite is in the earth's shadow,  

DLR